Location: *
(55.6049°S, 142.1985°W)
Time: 01:17:25
(UTC+00:00)

Cosmos 2279 Rocket - Pass Details

Date: 12 May 2021
Orbit: 964 x 978 km, 82.9° (Epoch: 23 June)

Event Time Altitude Azimuth Distance (km) Brightness Sun altitude
Rises 16:06:55 0° 337° (NNW) 3,676 7.0 -9.3°
Reaches altitude 10° 16:09:28 10° 333° (NNW) 2,734 6.3 -9.0°
Maximum altitude 16:15:40 60° 253° (WSW) 1,119 4.1 -8.2°
Drops below altitude 10° 16:21:55 10° 173° (S) 2,753 6.2 -7.3°
Sets 16:24:30 0° 169° (SSE) 3,703 6.9 -7.0°
